sat.trackr.live / text

‹ back to catalog

STARLINK-11243 [DTC]

NORAD 60927 · 2024-155D

PAYLOAD ACTIVE UNKNOWN

§ Identity

Operator
Country
US
Launch date
2024-08-31
Launch site
AFWTR
Launch vehicle
Mass (kg)
RCS (m²)

Purposes: comms

External: N2YO · Heavens-Above · Gunter

§ Orbital elements

Epoch: 2026-09-21T20:59:13.105536Z

Period
91.74 min
Inclination
53.1598°
Eccentricity
0.0001091
Mean motion
15.69707989 rev/d
Perigee alt
359.0 km
Apogee alt
360.5 km
Semi-major
6,737.9 km
B*
8.0134e-6
RAAN
94.2651°
Arg perigee
90.7942°
Mean anomaly
269.3201°
Rev number
11,921

§ Raw data

STARLINK-11243 [DTC]1 60927U 24155D   26264.87445724  .00000382  00000+0  80134-5 0  99952 60927  53.1598  94.2651 0001091  90.7942 269.3201 15.69707989119214

JSON: /api/v1/satellites/60927 · /tle

For live sub-satellite position, see the globe view (requires WebGL).

§ Visibility from observer

Set your observer location to see the next 7 days of passes ≥ 10°. The values pass through the URL so the page stays shareable.

No JS? Fill the form by hand. The geolocation button needs JavaScript.